Location: Unspecified
(0.0000°N, 0.0000°E)
Time: 02:48:09
(UTC-05:00)

Cosmos 1674 - Visible Passes

Search period start: 17 October 2017 00:00
Search period end: 27 October 2017 00:00
Orbit: 497 x 523 km, 82.5° (Epoch: 16 October)

Date Brightness Start Highest point End Pass type
(mag) Time Alt. Az. Time Alt. Az. Time Alt. Az.
17 Oct 3.4 00:15:31 10° S 00:19:13 58° E 00:22:54 10° NNE visible
17 Oct 4.2 23:58:54 10° SSE 00:02:27 40° E 00:05:58 10° NNE visible
18 Oct 4.9 23:42:23 10° SSE 23:45:40 28° E 23:48:54 10° NNE visible
19 Oct 5.5 23:26:01 10° SE 23:28:52 20° E 23:31:42 10° NE visible
20 Oct 5.9 23:09:54 10° SE 23:12:05 15° E 23:14:15 10° ENE visible
21 Oct 6.2 22:54:27 10° ESE 22:55:17 11° E 22:56:08 10° E visible
23 Oct 3.6 00:10:40 10° SW 00:13:48 25° W 00:16:55 10° NNW visible
23 Oct 3.2 23:53:34 10° SSW 23:57:01 35° W 00:00:26 10° NNW visible
24 Oct 2.7 23:36:35 10° SSW 23:40:14 51° W 23:43:50 10° N visible
25 Oct 2.4 23:19:41 10° S 23:23:26 75° W 23:27:08 10° N visible
26 Oct 3.4 23:02:54 10° S 23:05:35 45° SSE 23:05:35 45° SSE visible
